User: anonymous   Login
Location: Unspecified
(0.0000°N, 0.0000°E)
Time: 06:47:56
(UTC+00:00)
Language:

STARLINK-3723 - Orbit

View from above orbital plane
View from above orbital plane
View from above satellite
View from above satellite

Ground track
Ground track

The orbit is defined by the following mean orbital elements,

1 52138U          26145.10144683 +.00000000 +00000-0 +36631-4 0 00000
2 52138  53.2148  86.0938 0001436  74.9970 285.1181 15.08840340    07
Epoch (UTC): 25 May 2026 02:26:05
Eccentricity: 0.0001436
inclination: 53.2148°
perigee height: 539 km
apogee height: 541 km
right ascension of ascending node: 86.0938°
argument of perigee: 74.9970°
revolutions per day: 15.08840340
mean anomaly at epoch: 285.1181°

The dashed part of the orbit path shows where the satellite is in the earth's shadow,  

DLR